Location: Knowlton
(51.2333°N, 1.2667°E)
Time: 22:51:46
(UTC+00:00)

ZACube-1 - Pass Details

Date: 01 December 2021
Orbit: 582 x 665 km, 97.6° (Epoch: 21 January)

Event Time Altitude Azimuth Distance (km) Brightness Sun altitude
Rises 05:11:41 0° 8° (N) 2,984 ? -21.8°
Reaches altitude 10° 05:13:59 10° 0° (N) 2,078 ? -21.5°
Enters shadow 05:15:51 22° 347° (NNW) 1,429 ? -21.2°
